FW0812 Weather Reports


time (UTC)temp
C
wind
direction
speed
KPH
gust
KPH
rain 1hr
cm
rain 24hr
cm
rain mn
cm
humidity
%
barometer
mb
20260507221534 15 302 0.0 0.0 0.00 0.15 0.03 32 1007.3
20260507220033 16 290 0.0 0.0 0.00 0.15 0.03 33 1007.1
20260507214536 16 330 0.0 0.0 0.00 0.25 0.03 32 1007.0
20260507213040 16 281 0.0 0.0 0.00 0.25 0.03 33 1007.1
20260507211545 16 290 0.0 0.0 0.00 0.25 0.03 32 1007.2
20260507210033 16 271 0.0 0.0 0.00 0.25 0.03 33 1007.1
20260507204531 16 341 0.0 0.0 0.00 0.38 0.03 33 1006.9
20260507203030 17 274 0.0 0.0 0.00 0.38 0.03 32 1006.9
20260507201536 18 294 0.0 0.0 0.00 0.38 0.03 33 1007.0
20260507200034 18 261 0.0 0.0 0.00 0.38 0.03 32 1006.9
20260507194525 17 333 0.0 0.0 0.00 0.46 0.03 34 1007.1
20260507193025 17 303 0.0 0.0 0.00 0.46 0.03 34 1007.3
20260507191525 16 355 0.0 0.0 0.00 0.46 0.03 36 1007.4
20260507190021 17 309 0.0 0.0 0.00 0.46 0.03 33 1007.4
20260507184520 17 291 0.0 0.0 0.00 0.56 0.03 34 1007.5
20260507183019 17 355 0.0 0.0 0.00 0.56 0.03 33 1007.8
20260507181518 17 268 0.0 0.0 0.00 0.56 0.03 34 1007.5
20260507180036 17 307 0.0 0.0 0.00 0.56 0.03 35 1007.6
20260507174519 17 260 0.0 0.0 0.00 0.56 0.03 37 1007.6
20260507173021 17 296 0.0 0.0 0.00 0.56 0.03 39 1007.5
20260507171510 16 309 0.0 0.0 0.00 0.56 0.03 40 1007.7
20260507170021 17 284 0.0 0.0 0.00 0.56 0.03 44 1007.9
20260507164505 16 271 0.0 0.0 0.00 0.56 0.03 49 1008.2
20260507163003 16 269 0.0 0.0 0.00 0.56 0.03 51 1008.2
20260507161505 15 265 0.0 0.0 0.00 0.56 0.03 55 1008.5
20260507160002 15 286 0.0 0.0 0.00 0.56 0.03 54 1008.6
20260507154603 15 260 0.0 0.0 0.00 0.56 0.03 53 1008.6
20260507153107 15 278 0.0 0.0 0.00 0.56 0.03 54 1008.9
20260507151558 15 297 0.0 0.0 0.00 0.56 0.03 52 1009.0
20260507150108 15 288 0.0 0.0 0.00 0.56 0.03 54 1009.0
20260507144555 15 290 0.0 0.0 0.00 0.56 0.03 56 1009.2
20260507143105 15 272 0.0 0.0 0.00 0.56 0.03 57 1009.0
20260507141552 15 306 0.0 0.0 0.00 0.56 0.03 57 1009.0
20260507140053 15 285 0.0 0.0 0.00 0.56 0.03 60 1008.9
20260507134546 13 294 0.0 0.0 0.00 0.56 0.03 63 1008.9
20260507133047 12 271 0.0 0.0 0.00 0.56 0.03 64 1009.2
20260507131547 12 264 0.0 0.0 0.00 0.56 0.03 66 1009.3
20260507130041 11 294 0.0 0.0 0.00 0.56 0.03 71 1009.6
20260507124538 11 267 0.0 0.0 0.00 0.56 0.03 72 1009.7
20260507123034 10 261 0.0 0.0 0.00 0.56 0.03 76 1009.8
20260507121534 10 253 0.0 0.0 0.00 0.56 0.03 79 1009.8
20260507120033 9 255 0.0 0.0 0.00 0.56 0.03 83 1009.8
20260507114530 8 259 0.0 0.0 0.00 0.56 0.03 85 1009.7
20260507113030 8 77 0.0 0.0 0.00 0.56 0.03 86 1009.7
20260507111530 8 77 0.0 0.0 0.00 0.56 0.03 87 1009.9
20260507110028 8 77 0.0 0.0 0.00 0.56 0.03 87 1009.4
20260507104527 8 77 0.0 0.0 0.00 0.56 0.03 87 1009.3
20260507103034 8 339 0.0 0.0 0.00 0.56 0.03 87 1009.3
20260507101526 8 339 0.0 0.0 0.00 0.56 0.03 88 1009.2
20260507100024 8 340 0.0 0.0 0.00 0.56 0.03 88 1009.6
20260507094523 8 153 0.0 0.0 0.00 0.56 0.03 89 1009.4
20260507093021 8 274 0.0 0.0 0.00 0.56 0.03 89 1009.1
20260507091529 8 274 0.0 0.0 0.00 0.56 0.03 89 1009.4
20260507090018 8 285 0.0 0.0 0.03 0.56 0.03 88 1009.3
20260507084534 8 286 0.0 0.0 0.03 0.56 0.03 87 1008.8
20260507083014 9 287 0.0 0.0 0.03 0.56 0.03 86 1009.0
20260507081514 9 287 0.0 0.0 0.03 0.56 0.03 85 1008.5
20260507080011 9 266 0.0 0.0 0.00 0.53 0.00 84 1009.2
20260507074512 10 289 0.0 0.0 0.00 0.53 0.00 84 1008.6
20260507073008 10 311 0.0 0.0 0.00 0.53 0.00 85 1008.7
20260507071607 10 272 0.0 0.0 0.00 0.53 0.00 85 1008.4
20260507070009 10 306 0.0 0.0 0.00 0.53 0.00 85 1008.1
20260507064504 10 276 0.0 0.0 0.00 0.53 0.00 86 1008.3
20260507063001 10 271 0.0 0.0 0.00 0.53 0.00 86 1008.1
20260507061600 10 298 0.0 0.0 0.00 0.53 0.00 85 1008.0
20260507054613 10 278 0.0 0.0 0.00 0.53 0.00 85 1008.4
20260507053106 11 275 0.0 0.0 0.00 0.53 0.00 85 1008.4
20260507051558 11 271 0.0 0.0 0.00 0.53 0.00 85 1008.3
20260507050056 11 264 0.0 0.0 0.00 0.53 0.00 86 1007.9
20260507044556 11 299 0.0 0.0 0.00 0.53 0.00 86 1008.0
20260507043049 12 279 0.0 0.0 0.00 0.53 0.00 87 1008.3
20260507041558 12 292 0.0 0.0 0.00 0.53 0.00 88 1008.1
20260507040043 12 294 0.0 0.0 0.00 0.53 0.00 90 1007.9
20260507034538 13 299 0.0 0.0 0.00 0.53 0.53 91 1007.6
20260507033038 13 291 0.0 0.0 0.00 0.53 0.53 92 1007.4
20260507031538 14 284 0.0 0.0 0.00 0.53 0.53 93 1007.7
20260507030031 15 283 0.0 0.0 0.00 0.53 0.53 93 1007.1
20260507024534 15 306 0.0 0.0 0.00 0.53 0.53 93 1006.9
20260507023029 15 259 0.0 0.0 0.00 0.53 0.53 93 1006.6
20260507021534 15 211 0.0 0.0 0.00 0.53 0.53 93 1006.7
20260507020027 15 298 0.0 0.0 0.00 0.53 0.53 93 1006.9
20260507014529 15 296 0.0 0.0 0.00 0.53 0.53 93 1007.0
20260507013025 15 355 0.0 0.0 0.00 0.53 0.53 93 1007.1
20260507011525 15 207 0.0 0.0 0.00 0.53 0.53 93 1007.1
20260507010031 15 257 0.0 0.0 0.00 0.53 0.53 93 1007.1
20260507004523 15 300 0.0 0.0 0.03 0.53 0.53 93 1007.0
20260507003022 15 290 0.0 0.0 0.05 0.53 0.53 93 1006.8
20260507001522 15 296 0.0 0.0 0.08 0.53 0.53 93 1006.9
20260507000026 15 227 0.0 0.0 0.08 0.53 0.53 93 1006.8
20260506234520 15 272 0.0 0.0 0.05 0.51 0.51 92 1006.9
20260506233020 15 182 0.0 0.0 0.05 0.48 0.48 92 1006.8
20260506231520 15 213 0.0 0.0 0.03 0.46 0.46 92 1007.1
20260506230019 15 148 0.0 0.0 0.05 0.46 0.46 92 1007.0
20260506224516 15 179 0.0 0.0 0.05 0.46 0.46 92 1007.1
20260506223014 15 275 0.0 0.0 0.08 0.43 0.43 92 1007.2